Back to catalog

FENGYUN 1C DEB

AliveSSO
NORAD 30245·DEBRIS·🇨🇳 China

Launched May 10, 1999 from Taiyuan Satellite Launch Center

Loading…

Next Passes (next 24 hours)

TLE

FreshSource: Space-Track

Epoch: Sep 14, 2026, 09:03 UTC

1 30245U 99025XE  26257.37734417  .00000698  00000-0  62542-3 0  9992
2 30245  98.9106 233.6329 0190353 232.4852 125.8868 13.79697206984946

Track FENGYUN 1C DEB in real time with AllMySat

Download on the App Store